Погода в Фатиме

Португалия     39°37′16″N   8°39′29″W
темп.,
°C
ветер,
м/с
пор.,
м/с
влажн.,
%
обл.,
%
осадки,
мм/ч
давл.,
гПа
погр.,
м
29 июля, чт
чт2901:00+14сз379712 0.0 1014172
04:00+13сз359824 0.0 1013153
07:00+14сз349529 0.0 1014193
10:00+21сз34620 0.0 1015529
13:00+25сз44440 0.0 1015839
16:00+24сз57400 0.0 1015750
19:00+20ссз69560 0.0 1015603
22:00+14ссз5139422 0.0 1016452
30 июля, пт
пт3001:00+15ссз5149431 0.0 1016497
04:00+17ссз5149076 0.0 1016560
07:00+17ссз4128949 0.0 1016548
10:00+22ссз69600 0.0 1017804
13:00+25сз68460 0.0 10171070
16:00+24сз68500 0.0 1017989
19:00+20ссз710631 0.0 1017814
22:00+15ссз5138915 0.0 1018662
31 июля, сб
сб3101:00+15ссз71385100 0.0 1018764
04:00+14ссз7138628 0.0 1018748
07:00+15ссз7148525 0.0 1018818
10:00+19ссз9135476 0.0 10181029
13:00+22ссз811447 0.0 10191229
16:00+21ссз8104294 0.0 10181187
19:00+18ссз7126099 0.0 1018965
22:00+15ссз6138718 0.0 1020788
1 августа, вс
вс101:00+14ссз5139211 0.0 1019634
04:00+14ссз4129410 0.0 1018526
07:00+13ссз3109731 0.0 1018471
10:00+20ссз47587 0.0 1018769
13:00+24сз5642100 0.0 10171217
16:00+25сз56410 0.0 10161145
19:00+21сз575551 0.0 1015708
22:00+15ссз23904 0.0 101663
2 августа, пн
пн201:00+14ссз24944 0.0 101689
04:00+13ссз359714 0.0 1015123
07:00+15ссз4109390 0.0 1015429
10:00+20ссз57643 0.0 1015761
13:00+24ссз66480 0.0 10141251
16:00+24сз77480 0.0 10141125
19:00+20ссз711600 0.0 1014750
22:00+15ссз5139321 0.0 1015495